Showing default

GONETS D1 5, 24729

Orbit data source: Space-Track

GONETS D1 5, 24729 is a payload satellite owned by Gonets (CIS) in LEO that was launched on Fri, 14 Feb 1997 UTC via a TSIKLON-3 launch vehicle from the Plesetsk Missile And Space Complex (PKMTR). Payload-class satellites include a variety of spacecraft equipped with specific instruments for various scientific and technological missions. These include communications satellites like Starlink; space stations such as the ISS; scientific satellites like the Hubble; Earth observation satellites from companies like Planet Labs, Umbra, and HawkEye 360; GPS; miniature CubeSats for education and research; and military/defense satellites.

Loading next visibility...
Identifier
24729, 1997-006E
Orbit
LEO
Country
Flag of CISCIS
Related business
Manufacturer
NPO PM
Mission
Non-operational Civil Communications
Bus & Motor
STRELA-3, Unknown motor
Mass
225 kg wet, 225 kg dry
Launch date (UTC)
1997-02-14 (29 years ago)
Launch vehicle
TSIKLON-3
Launch site
Plesetsk Missile And Space Complex (PKMTR)
Object type
Payload
Rocket body
Debris
Shape & HBR
Cyl + 1 Ant, 3.5 m
Radar Cross Section
1.798 m², Medium (>0.1 m² and < 1m²)

Expand to show TLE details & history
Last TLE update: 8 hours ago

TLE from 8 hours ago
0 GONETS D1 5
1 24729U 97006E   26038.24253659  .00000037  00000-0  14584-3 0  9996
2 24729  82.6030 325.3746 0003975 171.8422 306.7533 12.62983398336059
Epoch: 2026-02-07T05:49Z
TLE epoch observation values (Epoch: 2026-02-07T05:49:15.161Z)
Latitude
60.66437°
Longitude
-92.59666°
Altitude
1,419.105 km
Speed
7.158 km/s
True Right ascension
08h 48m 20s
True Declination
60° 31' 47"
Sunlit
Object was in full shadow at epoch
Visualization orbit readout
Latitude
Unknown
Longitude
Unknown
Altitude
Unknown
Speed
Unknown
Apparent Right ascension
Unknown
Apparent Declination
Unknown
Sunlit
N/A
Visualization observer readout
Local Sidereal Time
15:39:57
Azimuth
Unknown
Elevation
Unknown
Doppler factor
Unknown
Orbital elements
Apogee altitude
1,411.068 km
Perigee altitude
1,404.878 km
Semi-major axis
7,786.11 km
Eccentricity
0.0004
Inclination
82.603°
RAAN
325.3746°
Arg. of periapsis
171.8422°
True anomaly
306.71679°
Mean anomaly
306.7533°
Eccentric anomaly
306.73505°
Mean motion
3.15909 °/min
Orbital period
113.96 mins
BSTAR
0.00014584
Loading maneuver chart data...
Computing Atmospheric mass density...
Loading historical data...
Loading historical data...
Loading historical data...
Loading historical data...
Loading historical data...
Loading historical data...
Loading historical data...

Documentation

Showing up to 5 results
|